Погода в Кикнуре

Россия / Кировская область     57°18′22″N   47°12′18″E
темп.,
°C
ветер,
м/с
пор.,
м/с
влажн.,
%
обл.,
%
осадки,
мм/ч
давл.,
гПа
погр.,
м
17 апреля, сб
сб1700:00+3всв411795 0.0 1029222
03:00+1всв49824 0.0 1030156
06:00+2всв49780 0.0 1030224
09:00+7всв58530 0.0 1030609
12:00+10всв56434 0.0 10291085
15:00+11всв45421 0.0 10281275
18:00+9св36555 0.0 1027160
21:00+5св35710 0.0 102778
18 апреля, вс
вс1800:00+4св36780 0.0 102793
03:00+2св36860 0.0 102791
06:00+3св37844 0.0 1027175
09:00+8св576321 0.0 1027643
12:00+11всв675289 0.0 10271559
15:00+8всв7865100 0.0 10281013
18:00+6всв5860100 0.0 10291008
21:00+4всв6125284 0.0 1030556
19 апреля, пн
пн1900:00+2всв51257100 0.0 1031467
03:000всв5116754 0.0 1032366
06:000всв613650 0.0 1033465
09:00+5в810390 0.0 10341233
12:00+7в810330 0.0 10331665
15:00+8в79320 0.0 10331751
18:00+6в59400 0.0 1033499
21:00+2в411560 0.0 1034244
20 апреля, вт
вт2000:000в411590 0.0 1034248
03:00−1в411580 0.0 1034248
06:000в511500 0.0 1034360
09:00+6вюв69410 0.0 1033808
12:00+9вюв79360 0.0 10321393
15:00+10вюв89300 0.0 10301427
18:00+8вюв6113919 0.0 1029546
21:00+4вюв6134899 0.0 1029381
21 апреля, ср
ср2100:00+3вюв7165398 0.0 1027428
03:00+3вюв71653100 0.0 1026487
06:00+3юв8185398 0.0 1024588
09:00+8юв91745100 0.0 1023906
12:00+9ююв91648100 0.1 10231073
15:00+5ююв91777100 1.3 1023933
18:00+5ююв81682100 0.6 1024771
21:00+5ююв81482100 0.6 1024638